Weather History for CWEK - November, 2012

Change the Weather History Date:

Monday, November 26, 2012

  Actual Average Record
Temperature  
Mean Temperature 42 °F -  
Max Temperature 43 °F - - ()
Min Temperature 40 °F - - ()
Degree Days  
Heating Degree Days 24    
Moisture  
Dew Point 38 °F    
Average Humidity 87    
Maximum Humidity 95    
Minimum Humidity 79    
Precipitation  
Precipitation 0.03 in - - ()
Sea Level Pressure  
Sea Level Pressure 30.14 in    
Wind  
Wind Speed 18 mph ()    
Max Wind Speed 37 mph    
Max Gust Speed 43 mph    
T = Trace of Precipitation, MM = Missing Value Source: Averaged Metar Reports

Daily Weather History Graph

Daily Weather History Graph

Search for Another Location

Airport or City:

Trip Planner

Search our weather history database for the weather conditions in past years. The results will help you decide how hot, cold, wet, or windy it might be!

Date:

Astronomy

Nov. 26, 2012 Rise Set
Actual Time 8:34 AM PST 4:25 PM PST
Civil Twilight 7:51 AM PST 5:08 PM PST
Nautical Twilight 7:06 AM PST 5:53 PM PST
Astronomical Twilight 6:23 AM PST 6:36 PM PST
Moon 3:30 PM PST (11/26) 6:41 AM PST (11/26)
Length of Visible Light 9h 16m
Length of Day
7h 51m
Waxing Gibbous, 97% of the Moon is Illuminated
Nov 26
Waxing Gibbous
Nov 28
Full
Dec 6
Last Quarter
Dec 13
New
Dec 19
First Quarter

Hourly Weather History & Observations

Time (PST) Temp. Windchill Dew Point Humidity Pressure Visibility Wind Dir Wind Speed Gust Speed Precip Events Conditions
12:00 AM 42.8 °F 35.1 °F 39.2 °F 87% 30.23 in - SSE 16.1 mph - 0.02 in   Unknown
1:00 AM 42.8 °F 35.4 °F 38.7 °F 85% 30.23 in - SSE 15.0 mph - N/A   Unknown
2:00 AM 42.8 °F 35.8 °F 38.7 °F 85% 30.23 in - SSE 13.8 mph - 0.01 in   Unknown
3:00 AM 43.0 °F 34.8 °F 38.7 °F 85% 30.22 in - SSE 18.4 mph - N/A   Unknown
4:00 AM 43 °F - 39 °F 79% 30.21 in - SSE 15.0 mph - -  
4:00 AM 42.6 °F 35.2 °F 38.7 °F 86% 30.21 in - SSE 15.0 mph - N/A   Unknown
5:00 AM 42.6 °F 36.8 °F 38.1 °F 84% 30.20 in - SE 10.4 mph - N/A   Unknown
6:00 AM 41.4 °F 33.6 °F 38.8 °F 91% 30.19 in - ENE 15.0 mph - N/A   Unknown
7:00 AM 41.2 °F 33.0 °F 39.6 °F 94% 30.19 in - ENE 16.1 mph - N/A   Unknown
8:00 AM 41.0 °F 31.9 °F 39.4 °F 94% 30.18 in - ENE 19.6 mph - N/A   Unknown
9:00 AM 40.6 °F 31.2 °F 39.2 °F 95% 30.18 in - NE 20.7 mph - N/A   Unknown
10:00 AM 41 °F - 39 °F 92% 30.17 in - NE 20.7 mph - -  
10:00 AM 40.6 °F 31.2 °F 39.4 °F 95% 30.17 in - NE 20.7 mph - N/A   Unknown
11:00 AM 40.8 °F 32.0 °F 39.2 °F 94% 30.18 in - NE 18.4 mph - N/A   Unknown
12:00 PM 40.8 °F 31.1 °F 39.0 °F 93% 30.17 in - NE 21.9 mph - N/A   Unknown
1:00 PM 41.4 °F 31.6 °F 38.5 °F 89% 30.15 in - NE 23.0 mph - N/A   Unknown
2:00 PM 41.9 °F 32.3 °F 38.5 °F 88% 30.13 in - NNE 23.0 mph - N/A   Unknown
3:00 PM 41.7 °F 31.2 °F 38.1 °F 87% 30.10 in - NE 27.6 mph - N/A   Unknown
4:00 PM 42 °F - 38 °F 81% 30.09 in - NE 31.1 mph - -  
4:00 PM 41.7 °F 30.6 °F 38.1 °F 87% 30.09 in - NE 31.1 mph - N/A   Unknown
5:00 PM 41.9 °F 30.5 °F 37.6 °F 85% 30.07 in - NE 33.4 mph 39.1 mph N/A   Unknown
6:00 PM 41.7 °F 30.3 °F 37.8 °F 86% 30.06 in - NE 33.4 mph 40.3 mph N/A   Unknown
7:00 PM 41.2 °F 29.0 °F 37.0 °F 85% 30.04 in - NE 36.8 mph - N/A   Unknown
8:00 PM 41.2 °F 29.2 °F 36.5 °F 83% 30.04 in - NE 35.7 mph 42.6 mph N/A   Unknown
9:00 PM 41.2 °F 29.4 °F 36.9 °F 85% 30.04 in - ENE 34.5 mph - N/A   Unknown
10:00 PM 41 °F - 37 °F 80% 30.03 in - ENE 32.2 mph - -  
11:00 PM 41.0 °F 29.1 °F 35.8 °F 82% 30.03 in - ENE 34.5 mph - N/A   Unknown